Pagrindinis puslapis
METAR-TAF:

METAR-TAF

Oro uostai :

Fayette Regional Air Center

La Grange, Teksasas, Jungtinės Amerikos Valstijos

platuma: 29-54-29N, ilguma: 096-57-00W, Aukštis: 99 m

Dabartinis oras

Ataskaita buvo paskelbta 12 minutes, ne 02:35 UTC
Vėjas 9 kt iš Pietų
Temperatūra 29°C
Drėgmė 79%
Slėgis 1013 hPa
Matomumas: 16.1 km
Giedras dangus

METAR: K3T5 250235Z AUTO 17009KT 10SM CLR 29/25 A2992 RMK AO2 T02920253

Laikas: 21:47 (02:47 UTC)


TAF: trūkstamas

Orai ataskaitas ir orų prognozės (METAR, TAF).

turimą stotys yra geltonos ir raudonos taškus žemėlapyje.

Perkelti pele per norėdami pamatyti stoties vardą.

Tada spustelėkite, norėdami matyti oro stebėjimo ir prognozės.

Norėdami pakeisti žemėlapį: spustelėkite ant žalios mygtukų su juodo kryžiaus žemyn,; žalią mygtuką su brūkšneliu, jei norite nutolinti; arba žalių rodyklių gretimoms žemėlapius.


METAR-TAF: